www.pogodaiklimat.ru

Погода и климат >> Архив погоды >> Россия >> Пермский край >> Лысьва


ПОГОДА в Лысьве

  • Прогноз погоды в Лысьве
  • Монитор погоды в Лысьве
  • Климат города

АРХИВ ПОГОДЫ в Лысьве

Время (UTC), дата Ветер
(напр.,м/с)
 
Видим.   Явления Облачность Т
(С)
Тd
(С)
f
(%)
Тe
(С)
Тes
(С)
Комфортность P
(гПа)
Po
(гПа)
Тmin
(С)
Tmax
(С)
R
(мм)
R24
(мм)
S
(см)
09 18.04 З 4
{13}
50 км 8/5 600 м
[Cu Sc Ac cast]
+4.9 -4.5 51 +1 +3 1014.1 986.3
12 18.04 З 4
{11}
50 км 9/9 300 м
[Cb cap]
+4.3 -4.5 53 +1 +1 1015.8 988.0
15 18.04 З 4
{11}
50 км 10/10 600 м
[Sc]
+2.6 -4.7 59 -2 -2 1017.2 989.1 +5.8
18 18.04 З 4
{10}
20 км {ливн. осадки} 10/10 600 м
[Sc]
0.0 -6.3 63 -5 -5 1019.8 991.4
21 18.04 З 3
{10}
20 км ясно -1.6 -9.1 57 -6 -6 1021.0 992.4
00 19.04 СЗ 2 20 км 3/3 600 м
[Sc]
-3.2 -8.3 68 -7 -7 1022.2 993.4
03 19.04 З 3 50 км 4/0
[Ci sp]
-3.3 -10.0 60 -8 -7 1023.9 995.1 -4.0 0.0 1
06 19.04 З 3 50 км 6/3 600 м
[Cu med, cong Ci sp]
-0.9 -10.5 48 -5 -1 1024.2 995.6
09 19.04 З 2 50 км 3/1 600 м
[Cu med, cong Ci fib]
+1.8 -10.5 40 -1 +8 1024.3 995.9
12 19.04 СЗ 2 50 км 3/0
[Ci sp]
+3.5 -10.9 34 +2 +6 1023.9 995.7
15 19.04 С 2 50 км 10/5 600 м
[Sc Ac As]
+1.9 -9.7 42 -1 -1 1024.5 996.1 +3.7
18 19.04 С 1 50 км 10/0 2000 м
[Ac und]
-0.5 -9.0 53 -2 -2 1025.4 996.8
21 19.04 С 1 50 км ясно -2.3 -9.0 60 -4 -4 1025.7 996.9
00 20.04 СВ 1 50 км 4/4 600 м
[Sc]
-2.5 -9.1 60 -4 -4 1024.8 996.0
03 20.04 СВ 2 20 км 10/10 600 м
[Sc]
-1.6 -9.4 55 -5 -5 1023.6 995.0 -2.9 <0.5
06 20.04 СВ 3 20 км {ливн. осадки} 10/10 600 м
[Sc]
+0.7 -8.3 51 -3 -3 1021.3 993.0
09 20.04 В 3
{11}
50 км 10/6 600 м
[Sc Ac und]
+3.9 -6.8 46 +1 +2 1017.5 989.6
12 20.04 В 4-10
{10}
50 км 10/3 600 м
[Sc Ac und]
+6.2 -6.7 39 +3 +4 1013.7 986.1
15 20.04 ЮВ 5-12
{15}
50 км 10/0 2000 м
[Ac und]
+4.9 -6.1 45 +1 +1 1009.1 981.5 +6.8 0.0
18 20.04 В 6-16
{19}
20 км 10/0 2000 м
[Ac und]
+4.2 -5.3 50 -1 -1 1004.4 976.9
21 20.04 ЮВ 4
{16}
10 км слабый дождь 10/10 600 м
[Sc]
+2.2 +0.4 88 -3 -3 1002.9 975.2
00 21.04 Ю 6
{14}
20 км в посл. час дождь 10/10 600 м
[Sc]
+2.3 +0.7 89 -4 -4 1002.3 974.6
03 21.04 ЮЗ 5
{19}
50 км в посл. час снег 8/8 600 м
[Sc]
-1.4 -7.2 65 -7 -7 1004.3 976.2 -1.4 6 <0.5
06 21.04 Ю 6-13
{14}
10 км слабый снег {ливн. осадки} 10/8 600 м
[Sc diur, vesp Ac cuf]
-1.4 -6.0 71 -8 -8 1004.7 976.6 -2.7
09 21.04 ЮЗ 6-11
{15}
20 км слабый снег 10/8 600 м
[Sc Ac und]
-0.4 -5.6 68 -7 -6 1005.2 977.2
12 21.04 ЮЗ 3
{14}
50 км {снег} 10/5 600 м
[Sc Ac und]
+0.6 -6.4 59 -3 -3 1006.3 978.4
15 21.04 ЮЗ 3
{11}
50 км {ливн. осадки} 9/4 300 м
[Cb calv Ac cuf]
-1.1 -3.4 84 -6 -6 1007.7 979.6 +0.9 2
18 21.04 ЮЗ 3 20 км {ливн. осадки} 10/10 600 м
[Sc diur, vesp]
-1.2 -3.9 82 -6 -6 1009.2 981.0
21 21.04 ЮЗ 3 20 км {ливн. осадки} 10/10 600 м
[Sc diur, vesp]
-1.2 -3.9 82 -6 -6 1009.2 981.0
00 22.04 Ю 3 20 км ясно -3.0 -6.0 80 -8 -8 1010.2 981.8
03 22.04 Ю 2 50 км ясно -1.0 -6.6 66 -4 -2 1011.4 983.1 -3.2 2
06 22.04 ЮЗ 4 50 км 1/0
[Ci fib]
+3.7 -8.0 42 0 +6 1010.9 983.1
09 22.04 Ю 6-12
{13}
50 км 8/0 600 м
[Cc]
+5.2 -8.7 36 +1 +5 1010.7 983.0
12 22.04 Ю 5-10
{14}
50 км 4/4 600 м
[Cu med, cong]
+6.9 -9.0 31 +4 +5 1009.7 982.3
15 22.04 Ю 3
{12}
50 км 10/0
[Cc]
+4.7 -7.0 42 +2 +2 1008.9 981.3 +7.2
18 22.04 Ю 3 20 км 10/0
[Cs]
+3.2 -6.7 48 0 0 1008.4 980.7
21 22.04 В 1 20 км 9/0 2000 м
[Ac cast]
+2.3 -5.7 55 +1 +1 1006.3 978.6
00 23.04 СВ 1 20 км 10/10 600 м
[Sc]
+0.6 -0.4 93 -1 -1 1004.7 976.8
03 23.04 ЮВ 3 20 км {снег} 10/10 600 м
[Sc]
+1.7 -0.4 86 -3 -3 1002.2 974.5 +0.6 0.7 2
06 23.04 ЮВ 2 10 км слабый дождь {снег} 10/10 600 м
[Sc]
+3.0 +1.1 87 -0 -0 1001.2 973.6
09 23.04 Ю 2 10 км слабый дождь 10/10 600 м
[Sc]
+3.2 +2.2 93 0 0 1002.4 974.9
12 23.04 ЮЗ 3 10 км слабый дождь 10/10 600 м
[Sc]
+4.0 +2.5 90 0 0 1004.2 976.7
15 23.04 ЮЗ 3 20 км {дождь} 10/10 600 м
[Sc]
+3.8 +1.1 83 0 0 1006.4 978.8 +4.4 0.8
18 23.04 Ю 3 20 км {дождь} 10/0 2000 м
[Ac und]
+3.4 +0.6 82 -0 -0 1009.2 981.5
21 23.04 Ю 2 20 км 8/0 2000 м
[Ac As]
+2.1 -0.5 83 -1 -1 1010.4 982.5
00 24.04 Ю 3 20 км 9/3 600 м
[Sc Ac As]
+2.2 +0.6 89 -2 -2 1011.6 983.7
03 24.04 Ю 3 20 км 9/5 600 м
[Sc Ac As]
+2.9 +0.6 85 -1 -1 1013.1 985.2 +1.7 0
06 24.04 Ю 3 50 км 4/0
[Ci fib]
+8.2 +0.5 58 +6 +13 1012.2 984.8
09 24.04 Ю 4 50 км 10/6 600 м
[Sc Ac und]
+9.7 +0.4 52 +7 +8 1011.9 984.7
12 24.04 ЮВ 2 10 км дождь 10/10 600 м
[Sc]
+7.0 +4.5 84 +5 +5 1010.4 983.0
15 24.04 ЮВ 2 20 км слабый дождь 10/10 600 м
[Sc]
+4.6 +3.1 90 +2 +2 1009.5 981.9 +10.3 2
18 24.04 В 3 10 км слабый дождь 10/10 600 м
[Sc]
+4.4 +3.3 93 +1 +1 1005.3 977.8
21 24.04 ЮВ 3 10 км слабый дождь 10/10 600 м
[Sc]
+5.2 +4.0 92 +2 +2 1000.9 973.6
00 25.04 ЮВ 4 20 км {дождь} 10/10 600 м
[Sc]
+7.2 +5.7 90 +4 +4 998.0 971.0
03 25.04 Ю 5-11
{11}
20 км 10/10 600 м
[Sc]
+7.8 +5.5 85 +4 +4 998.3 971.3 +4.3 3 <0.5
06 25.04 Ю 7-12
{14}
20 км слабая морось {дождь} 10/10 300 м
[St]
+6.5 +4.5 87 +1 +1 1001.1 973.9

 

Местоположение метеостанции Лысьва (Пермский край, Россия): широта 58.12 долгота 57.78 высота над уровнем моря 226 м.

В архиве по умолчанию представлена погода в Лысьве за последнюю неделю. Архивные данные за месяц целиком и за предыдущие месяцы, начиная с января 2011 года, Вы можете получить, выбрав интересующий диапазон дат из раскрывающегося списка и нажав кнопку "Ввод!".

Внимание! Время в таблицах - всемирное. Для получения местного времени необходимо прибавить поправку, которая в Лысьве равна 5 ч.

Смотрите также архив погоды в соседних городах и на ближайших метеорологических станциях:

Погода в Перми (Пермский край, Россия) (67 км)
Погода в Бисере (Пермский край, Россия) (77 км)
Погода в Добрянке (Пермский край, Россия) (86 км)
Погода в Губахе (Пермский край, Россия) (88 км)
Погода в Шамарах (Свердловская область, Россия) (90 км)
Погода в Кунгуре (Пермский край, Россия) (93 км)
Погода в Висиме (Свердловская область, Россия) (115 км)
Погода в Чермозе (Пермский край, Россия) (117 км)
Погода в Кушве (Свердловская область, Россия) (118 км)
Погода в Нижнем Тагиле (Свердловская область, Россия) (138 км)

Пояснения к столбцам:

Ветер - указаны скорость ветра в м/с - средняя за 10 мин, порывы в срок и между сроками (в фигурных скобках) и направление, откуда дует ветер: С - северный, СВ - северо-восточный, В - восточный, ЮВ - юго-восточный, Ю - южный, ЮЗ - юго-западный, З - западный, СЗ - северо-западный.
Видимость - горизонтальная дальность видимости в метрах или километрах. При видимости от 1 до 10 км при отсутствии осадков обычно наблюдается дымка, при ухудшении видимости до 1 км и менее - туман. В сухую погоду видимость может ухудшаться дымом, пылью или мглою.
Явления - указаны атмосферные явления, наблюдавшиеся в срок или в последний час перед сроком; фигурными скобками обозначены явления, наблюдавшиеся между сроками (за 1-3 часа до срока); квадратными скобками обозначены град или гололедные отложения с указанием их диаметра в мм.
Облачность - указаны через наклонную черту общая и нижняя облачность в баллах и высота нижней границы облаков в метрах; квадратными скобками обозначены формы облаков: Ci - перистые, Cs - перисто-слоистые, Cc - перисто-кучевые, Ac - высококучевые, As - высокослоистые, Sc - слоисто-кучевые, Ns - слоисто-дождевые, Cu - кучевые, Cb - кучево-дождевые. Подробнее классификацию облаков см. в Атласе облаков (PDF).
T - Температура воздуха - температура, измеренная на высоте 2 м над землей.
Td - Температура точки росы - температура, при понижении до которой содержащийся в воздухе водяной пар достигнет насыщения.
f - Относительная влажность воздуха - влажноcть воздуха, измеренная на высоте 2 м над землей.
Te - Эффективная температура - температура, которую ощущает одетый по сезону человек в тени. Характеристика душности погоды. При расчете учитывается влияние влажности воздуха и скорости ветра на теплоощущения человека.
Tes - Эффективная температура на солнце - температура, которую ощущает человек, с поправкой на солнечный нагрев. Характеристика знойности погоды. Зависит от высоты солнца над горизонтом, облачности и скорости ветра. Ночью, в пасмурную погоду, а также при ветре 12 м/с и более поправка равна нулю.
P - Атмосферное давление - приведенное к уровню моря атмосферное давление.
Po - Атмосферное давление - измеренное на уровне метеостанции атмосферное давление.
Tmin - Минимальная температура - минимум температуры воздуха на высоте 2 м над землей.
Tmax - Максимальная температура - максимум температуры воздуха на высоте 2 м над землей.
R - Количество осадков - Количество выпавших осадков за период времени, мм. При наведении курсора мыши на число - период времени, за который выпало указанное количество осадков.
R24 - Количество осадков - Количество выпавших осадков за 24 часа, мм.
S - Снежный покров - Высота снежного покрова, см. При наведении курсора мыши на число - состояние снежного покрова и степень покрытия местности в баллах.